Weather History for KHCO - May, 2013

Change the Weather History Date:

Friday, May 3, 2013

  Actual Average (KGAF) Record (KGAF)
Temperature  
Mean Temperature 39 °F -  
Max Temperature 50 °F 67 °F 96 °F (1980)
Min Temperature 28 °F 37 °F 14 °F (1967)
Degree Days  
Heating Degree Days 26    
Moisture  
Dew Point 30 °F    
Average Humidity 71    
Maximum Humidity 93    
Minimum Humidity 53    
Precipitation  
Precipitation 0.00 in - - ()
Sea Level Pressure  
Sea Level Pressure 30.42 in    
Wind  
Wind Speed 5 mph (NE)    
Max Wind Speed 14 mph    
Max Gust Speed 20 mph    
Visibility 10 miles    
Events      
Averages and records for this station are not official NWS values.
T = Trace of Precipitation, MM = Missing Value Source: NWS Daily Summary

Daily Weather History Graph

Daily Weather History Graph

Search for Another Location

Airport or City:

Trip Planner

Search our weather history database for the weather conditions in past years. The results will help you decide how hot, cold, wet, or windy it might be!

Date:

Astronomy

May. 03, 2013 Rise Set
Actual Time 6:03 AM CDT 8:46 PM CDT
Civil Twilight 5:28 AM CDT 9:22 PM CDT
Nautical Twilight 4:42 AM CDT 10:08 PM CDT
Astronomical Twilight 3:48 AM CDT 11:02 PM CDT
Moon 3:00 AM CDT (5/3) 2:12 PM CDT (5/3)
Length of Visible Light 15h 54m
Length of Day
14h 42m
Last Quarter, 37% of the Moon is Illuminated
May 3
Last Quarter
May 9
New
May 17
First Quarter
May 24
Full
May 31
Last Quarter

Hourly Weather History & Observations

Time (CDT) Temp. Windchill Dew Point Humidity Pressure Visibility Wind Dir Wind Speed Gust Speed Precip Events Conditions
12:13 AM 30.2 °F 25.4 °F 26.6 °F 86% 30.56 in 10.0 mi NNE 4.6 mph - N/A   Clear
12:33 AM 30.2 °F 25.4 °F 26.6 °F 86% 30.55 in 10.0 mi NE 4.6 mph - N/A   Clear
12:53 AM 30.2 °F 26.7 °F 26.6 °F 86% 30.55 in 10.0 mi NE 3.5 mph - N/A   Clear
1:13 AM 30.2 °F 25.4 °F 26.6 °F 86% 30.54 in 10.0 mi NE 4.6 mph - N/A   Clear
1:33 AM 30.2 °F 25.4 °F 26.6 °F 86% 30.53 in 10.0 mi ENE 4.6 mph - N/A   Clear
1:54 AM 30.2 °F 25.4 °F 26.6 °F 86% 30.53 in 10.0 mi ENE 4.6 mph - N/A   Clear
2:13 AM 30.2 °F 25.4 °F 26.6 °F 86% 30.52 in 10.0 mi ENE 4.6 mph - N/A   Clear
2:33 AM 30.2 °F 25.4 °F 26.6 °F 86% 30.52 in 10.0 mi ENE 4.6 mph - N/A   Clear
2:53 AM 28.4 °F 22.2 °F 26.6 °F 93% 30.52 in 10.0 mi East 5.8 mph - N/A   Clear
3:13 AM 28.4 °F 23.3 °F 26.6 °F 93% 30.52 in 10.0 mi East 4.6 mph - N/A   Clear
3:33 AM 28.4 °F 24.6 °F 26.6 °F 93% 30.52 in 10.0 mi East 3.5 mph - N/A   Clear
3:53 AM 28.4 °F 24.6 °F 26.6 °F 93% 30.52 in 10.0 mi East 3.5 mph - N/A   Clear
4:13 AM 28.4 °F 24.6 °F 26.6 °F 93% 30.52 in 10.0 mi ESE 3.5 mph - N/A   Clear
4:33 AM 28.4 °F 23.3 °F 26.6 °F 93% 30.52 in 10.0 mi ESE 4.6 mph - N/A   Clear
4:53 AM 28.4 °F 24.6 °F 26.6 °F 93% 30.51 in 10.0 mi ESE 3.5 mph - N/A   Clear
5:13 AM 28.4 °F - 26.6 °F 93% 30.51 in 10.0 mi Calm Calm - N/A   Clear
5:33 AM 28.4 °F 24.6 °F 26.6 °F 93% 30.51 in 10.0 mi East 3.5 mph - N/A   Clear
5:53 AM 28.4 °F 24.6 °F 26.6 °F 93% 30.50 in 10.0 mi East 3.5 mph - N/A   Clear
6:13 AM 28.4 °F 24.6 °F 26.6 °F 93% 30.51 in 10.0 mi East 3.5 mph - N/A   Clear
6:33 AM 28.4 °F - 26.6 °F 93% 30.51 in 10.0 mi Calm Calm - N/A   Clear
6:53 AM 28.4 °F - 26.6 °F 93% 30.50 in 10.0 mi Calm Calm - N/A   Clear
7:13 AM 30.2 °F - 26.6 °F 86% 30.50 in 10.0 mi Calm Calm - N/A   Clear
7:33 AM 30.2 °F - 28.4 °F 93% 30.50 in 10.0 mi Calm Calm - N/A   Clear
7:53 AM 32.0 °F - 28.4 °F 87% 30.50 in 10.0 mi Calm Calm - N/A   Clear
8:13 AM 33.8 °F 30.8 °F 26.6 °F 75% 30.50 in 10.0 mi East 3.5 mph - N/A   Clear
8:33 AM 33.8 °F 30.8 °F 26.6 °F 75% 30.49 in 10.0 mi East 3.5 mph - N/A   Clear
8:53 AM 35.6 °F - 28.4 °F 75% 30.49 in 10.0 mi Calm Calm - N/A   Clear
9:13 AM 35.6 °F 32.8 °F 28.4 °F 75% 30.48 in 10.0 mi ESE 3.5 mph - N/A   Clear
9:33 AM 35.6 °F - 24.8 °F 65% 30.48 in 10.0 mi Calm Calm - N/A   Clear
9:53 AM 37.4 °F 32.8 °F 24.8 °F 60% 30.48 in 10.0 mi East 5.8 mph - N/A   Clear
10:13 AM 37.4 °F 32.8 °F 26.6 °F 65% 30.47 in 10.0 mi East 5.8 mph - N/A   Clear
10:33 AM 37.4 °F 33.8 °F 26.6 °F 65% 30.46 in 10.0 mi SE 4.6 mph - N/A   Clear
10:53 AM 39.2 °F - 26.6 °F 61% 30.45 in 10.0 mi Calm Calm - N/A   Clear
11:13 AM 39.2 °F - 24.8 °F 56% 30.44 in 10.0 mi Calm Calm - N/A   Clear
11:33 AM 39.2 °F 35.9 °F 26.6 °F 61% 30.44 in 10.0 mi SE 4.6 mph - N/A   Clear
11:53 AM 41.0 °F 39.0 °F 26.6 °F 57% 30.44 in 10.0 mi NNE 3.5 mph - N/A   Clear
12:13 PM 41.0 °F 39.0 °F 26.6 °F 57% 30.43 in 10.0 mi West 3.5 mph - N/A   Clear
12:33 PM 42.8 °F 41.1 °F 28.4 °F 57% 30.42 in 10.0 mi ESE 3.5 mph - N/A   Clear
12:53 PM 42.8 °F - 26.6 °F 53% 30.42 in 10.0 mi Calm Calm - N/A   Clear
1:14 PM 44.6 °F 40.7 °F 30.2 °F 57% 30.41 in 10.0 mi NNE 6.9 mph - N/A   Clear
1:33 PM 44.6 °F 43.1 °F 30.2 °F 57% 30.40 in 10.0 mi ENE 3.5 mph - N/A   Clear
1:53 PM 44.6 °F 42.2 °F 30.2 °F 57% 30.39 in 10.0 mi North 4.6 mph - N/A   Clear
2:14 PM 44.6 °F 43.1 °F 30.2 °F 57% 30.38 in 10.0 mi East 3.5 mph - N/A   Clear
2:33 PM 46.4 °F 44.3 °F 33.8 °F 62% 30.37 in 10.0 mi North 4.6 mph - N/A   Clear
2:53 PM 46.4 °F 43.5 °F 33.8 °F 62% 30.37 in 10.0 mi WNW 5.8 mph - N/A   Clear
3:14 PM 46.4 °F 44.3 °F 33.8 °F 62% 30.36 in 10.0 mi NW 4.6 mph - N/A   Clear
3:33 PM 46.4 °F 44.3 °F 32.0 °F 57% 30.35 in 10.0 mi North 4.6 mph - N/A   Clear
3:53 PM 48.2 °F - 33.8 °F 58% 30.34 in 10.0 mi NNW 5.8 mph - N/A   Clear
4:13 PM 48.2 °F - 35.6 °F 62% 30.34 in 10.0 mi NNW 5.8 mph - N/A   Clear
4:33 PM 48.2 °F - 35.6 °F 62% 30.33 in 10.0 mi NNW 8.1 mph 16.1 mph N/A   Clear
4:53 PM 48.2 °F - 35.6 °F 62% 30.32 in 10.0 mi NW 6.9 mph - N/A   Clear
5:13 PM 50.0 °F - 35.6 °F 58% 30.31 in 10.0 mi NNW 11.5 mph 18.4 mph N/A   Clear
5:33 PM 50.0 °F - 37.4 °F 62% 30.31 in 10.0 mi NNW 11.5 mph - N/A   Clear
5:53 PM 50.0 °F - 35.6 °F 58% 30.30 in 10.0 mi NNW 11.5 mph 19.6 mph N/A   Clear
6:13 PM 50.0 °F - 37.4 °F 62% 30.30 in 10.0 mi NNW 11.5 mph 19.6 mph N/A   Clear
6:33 PM 50.0 °F - 37.4 °F 62% 30.30 in 10.0 mi NNW 11.5 mph - N/A   Clear
6:53 PM 50.0 °F - 37.4 °F 62% 30.30 in 10.0 mi NNW 13.8 mph - N/A   Clear
7:13 PM 50.0 °F - 37.4 °F 62% 30.30 in 10.0 mi NNW 10.4 mph - N/A   Clear
7:33 PM 48.2 °F - 37.4 °F 66% 30.29 in 10.0 mi NNW 11.5 mph - N/A   Clear
7:53 PM 48.2 °F - 37.4 °F 66% 30.29 in 10.0 mi NW 9.2 mph - N/A   Clear
8:13 PM 48.2 °F - 33.8 °F 58% 30.29 in 10.0 mi North 8.1 mph - N/A   Clear
8:33 PM 48.2 °F - 33.8 °F 58% 30.29 in 10.0 mi NNE 8.1 mph - N/A   Clear
8:53 PM 46.4 °F 42.9 °F 33.8 °F 62% 30.29 in 10.0 mi North 6.9 mph - N/A   Clear
9:13 PM 44.6 °F 40.2 °F 33.8 °F 66% 30.30 in 10.0 mi North 8.1 mph - N/A   Clear
9:33 PM 44.6 °F 40.2 °F 33.8 °F 66% 30.30 in 10.0 mi North 8.1 mph - N/A   Clear
9:53 PM 42.8 °F 38.0 °F 33.8 °F 70% 30.31 in 10.0 mi NE 8.1 mph - N/A   Clear
10:13 PM 44.6 °F 40.2 °F 32.0 °F 61% 30.31 in 10.0 mi ESE 8.1 mph - N/A   Clear
10:33 PM 42.8 °F 40.1 °F 32.0 °F 66% 30.31 in 10.0 mi East 4.6 mph - N/A   Clear
10:53 PM 42.8 °F 40.1 °F 30.2 °F 61% 30.31 in 10.0 mi East 4.6 mph - N/A   Clear
11:14 PM 41.0 °F 37.1 °F 28.4 °F 61% 30.31 in 10.0 mi East 5.8 mph - N/A   Clear
11:33 PM 41.0 °F 37.1 °F 28.4 °F 61% 30.31 in 10.0 mi East 5.8 mph - N/A   Clear
11:53 PM 39.2 °F 35.9 °F 28.4 °F 65% 30.31 in 10.0 mi ENE 4.6 mph - N/A   Clear